Weather History for KIRS - August, 2014

Change the Weather History Date:

Sunday, August 10, 2014

  Actual Average (KHAI) Record (KHAI)
Temperature  
Mean Temperature 70 °F -  
Max Temperature 84 °F 82 °F 93 °F (1971)
Min Temperature 57 °F 59 °F 42 °F (1972)
Cooling Degree Days 6    
Growing Degree Days 20 (Base 50)    
Moisture  
Dew Point 63 °F    
Average Humidity 74    
Maximum Humidity 100    
Minimum Humidity 54    
Precipitation  
Precipitation 0.00 in - - ()
Sea Level Pressure  
Sea Level Pressure 30.04 in    
Wind  
Wind Speed 5 mph (ENE)    
Max Wind Speed 8 mph    
Max Gust Speed -    
Visibility 10 miles    
Events      
Averages and records for this station are not official NWS values.
T = Trace of Precipitation, MM = Missing Value Source: NWS Daily Summary

Daily Weather History Graph

Daily Weather History Graph

Search for Another Location

Airport or City:

Trip Planner

Search our weather history database for the weather conditions in past years. The results will help you decide how hot, cold, wet, or windy it might be!

Date:

Astronomy

Aug. 10, 2014 Rise Set
Actual Time 6:44 AM EDT 8:48 PM EDT
Civil Twilight 6:14 AM EDT 9:19 PM EDT
Nautical Twilight 5:36 AM EDT 9:56 PM EDT
Astronomical Twilight 4:56 AM EDT 10:36 PM EDT
Moon 8:33 PM EDT (8/10) 6:37 AM EDT (8/10)
Length of Visible Light 15h 04m
Length of Day
14h 03m
Full, 100% of the Moon is Illuminated
Aug 10
Full
Aug 10
Full
Aug 17
Last Quarter
Aug 25
New
Sep 2
First Quarter

Hourly Weather History & Observations

Time (EDT) Temp. Heat Index Dew Point Humidity Pressure Visibility Wind Dir Wind Speed Gust Speed Precip Events Conditions
12:15 AM 59.0 °F - 55.4 °F 88% 30.10 in 10.0 mi Calm Calm - N/A   Clear
12:34 AM 60.8 °F - 55.4 °F 82% 30.10 in 10.0 mi East 3.5 mph - N/A   Clear
12:55 AM 57.2 °F - 55.4 °F 94% 30.10 in 10.0 mi East 5.8 mph - N/A   Clear
1:15 AM 60.8 °F - 57.2 °F 88% 30.09 in 10.0 mi East 4.6 mph - N/A   Clear
1:34 AM 60.8 °F - 55.4 °F 82% 30.09 in 10.0 mi Calm Calm - N/A   Clear
1:55 AM 57.2 °F - 55.4 °F 94% 30.08 in 10.0 mi NE 4.6 mph - N/A   Clear
2:15 AM 59.0 °F - 55.4 °F 88% 30.08 in 10.0 mi NE 3.5 mph - N/A   Clear
2:35 AM 59.0 °F - 57.2 °F 94% 30.08 in 10.0 mi NE 3.5 mph - N/A   Clear
2:54 AM 60.8 °F - 57.2 °F 88% 30.08 in 10.0 mi ENE 4.6 mph - N/A   Clear
3:15 AM 59.0 °F - 57.2 °F 94% 30.07 in 10.0 mi ENE 4.6 mph - N/A   Clear
3:34 AM 60.8 °F - 57.2 °F 88% 30.08 in 10.0 mi ENE 5.8 mph - N/A   Clear
3:55 AM 60.8 °F - 57.2 °F 88% 30.07 in 10.0 mi East 4.6 mph - N/A   Clear
4:15 AM 60.8 °F - 57.2 °F 88% 30.07 in 10.0 mi ENE 4.6 mph - N/A   Clear
4:34 AM 60.8 °F - 57.2 °F 88% 30.06 in 10.0 mi ENE 4.6 mph - N/A   Clear
5:15 AM 59.0 °F - 57.2 °F 94% 30.06 in 10.0 mi NE 3.5 mph - N/A   Clear
5:35 AM 57.2 °F - 57.2 °F 100% 30.07 in 10.0 mi NE 3.5 mph - N/A   Clear
5:55 AM 57.2 °F - 57.2 °F 100% 30.06 in 10.0 mi ENE 6.9 mph - N/A   Clear
6:15 AM 59.0 °F - 57.2 °F 94% 30.07 in 10.0 mi ENE 5.8 mph - N/A   Clear
6:35 AM 59.0 °F - 57.2 °F 94% 30.06 in 10.0 mi ENE 5.8 mph - N/A   Clear
6:54 AM 60.8 °F - 57.2 °F 88% 30.06 in 10.0 mi ENE 4.6 mph - N/A   Clear
7:15 AM 60.8 °F - 57.2 °F 88% 30.07 in 10.0 mi ENE 4.6 mph - N/A   Clear
7:34 AM 60.8 °F - 59.0 °F 94% 30.07 in 10.0 mi NE 3.5 mph - N/A   Mostly Cloudy
8:15 AM 62.6 °F - 60.8 °F 94% 30.08 in 10.0 mi ENE 6.9 mph - N/A   Overcast
8:34 AM 62.6 °F - 60.8 °F 94% 30.08 in 10.0 mi ENE 4.6 mph - N/A   Mostly Cloudy
8:55 AM 64.4 °F - 62.6 °F 94% 30.08 in 10.0 mi ENE 4.6 mph - N/A   Scattered Clouds
9:15 AM 66.2 °F - 62.6 °F 88% 30.08 in 10.0 mi East 4.6 mph - N/A   Clear
9:35 AM 68.0 °F - 62.6 °F 83% 30.09 in 10.0 mi East 5.8 mph - N/A   Scattered Clouds
9:54 AM 69.8 °F - 64.4 °F 83% 30.08 in 10.0 mi East 5.8 mph - N/A   Overcast
10:15 AM 71.6 °F - 64.4 °F 78% 30.07 in 10.0 mi East 6.9 mph - N/A   Overcast
10:35 AM 73.4 °F - 66.2 °F 78% 30.07 in 10.0 mi East 6.9 mph - N/A   Scattered Clouds
10:55 AM 75.2 °F - 66.2 °F 73% 30.06 in 10.0 mi East 3.5 mph - N/A   Clear
11:14 AM 77.0 °F - 66.2 °F 69% 30.07 in 10.0 mi East 5.8 mph - N/A   Clear
11:35 AM 78.8 °F - 66.2 °F 65% 30.06 in 10.0 mi East 6.9 mph - N/A   Scattered Clouds
11:55 AM 78.8 °F - 68.0 °F 69% 30.06 in 10.0 mi NE 6.9 mph - N/A   Mostly Cloudy
12:15 PM 78.8 °F - 68.0 °F 69% 30.06 in 10.0 mi East 5.8 mph - N/A   Mostly Cloudy
12:34 PM 80.6 °F 83.9 °F 69.8 °F 70% 30.06 in 10.0 mi East 6.9 mph - N/A   Scattered Clouds
12:55 PM 80.6 °F 83.2 °F 68.0 °F 65% 30.06 in 10.0 mi SE 4.6 mph - N/A   Scattered Clouds
1:15 PM 80.6 °F 83.2 °F 68.0 °F 65% 30.06 in 10.0 mi ESE 4.6 mph - N/A   Mostly Cloudy
1:34 PM 80.6 °F 82.7 °F 66.2 °F 61% 30.06 in 10.0 mi East 6.9 mph - N/A   Overcast
1:55 PM 80.6 °F 82.7 °F 66.2 °F 61% 30.05 in 10.0 mi East 6.9 mph - N/A   Overcast
2:14 PM 80.6 °F 82.7 °F 66.2 °F 61% 30.04 in 10.0 mi East 5.8 mph - N/A   Mostly Cloudy
2:35 PM 82.4 °F 84.6 °F 66.2 °F 58% 30.04 in 10.0 mi ESE 8.1 mph - N/A   Scattered Clouds
2:54 PM 80.6 °F 82.7 °F 66.2 °F 61% 30.04 in 10.0 mi East 6.9 mph - N/A   Scattered Clouds
3:15 PM 82.4 °F 84.6 °F 66.2 °F 58% 30.03 in 10.0 mi ENE 8.1 mph - N/A   Scattered Clouds
3:35 PM 84.2 °F 86.6 °F 66.2 °F 55% 30.02 in 10.0 mi East 6.9 mph - N/A   Scattered Clouds
3:54 PM 84.2 °F 86.6 °F 66.2 °F 55% 30.02 in 10.0 mi ENE 5.8 mph - N/A   Clear
4:15 PM 82.4 °F 83.9 °F 64.4 °F 54% 30.01 in 10.0 mi East 4.6 mph - N/A   Scattered Clouds
4:34 PM 82.4 °F 84.6 °F 66.2 °F 58% 30.00 in 10.0 mi East 6.9 mph - N/A   Scattered Clouds
4:55 PM 82.4 °F 84.6 °F 66.2 °F 58% 30.00 in 10.0 mi ENE 8.1 mph - N/A   Scattered Clouds
5:14 PM 84.2 °F 86.6 °F 66.2 °F 55% 29.99 in 10.0 mi East 6.9 mph - N/A   Scattered Clouds
5:35 PM 84.2 °F 86.6 °F 66.2 °F 55% 29.99 in 10.0 mi East 4.6 mph - N/A   Scattered Clouds
5:54 PM 82.4 °F 84.6 °F 66.2 °F 58% 29.99 in 10.0 mi ENE 6.9 mph - N/A   Mostly Cloudy
6:15 PM 82.4 °F 84.6 °F 66.2 °F 58% 29.99 in 10.0 mi ENE 8.1 mph - N/A   Mostly Cloudy
6:35 PM 80.6 °F 82.7 °F 66.2 °F 61% 29.99 in 10.0 mi ENE 3.5 mph - N/A   Scattered Clouds
6:54 PM 80.6 °F 82.7 °F 66.2 °F 61% 29.98 in 10.0 mi ENE 4.6 mph - N/A   Scattered Clouds
7:15 PM 80.6 °F 82.7 °F 66.2 °F 61% 29.98 in 10.0 mi East 5.8 mph - N/A   Clear
7:34 PM 80.6 °F 82.7 °F 66.2 °F 61% 29.98 in 10.0 mi ENE 4.6 mph - N/A   Scattered Clouds
7:55 PM 78.8 °F - 64.4 °F 61% 29.98 in 10.0 mi ENE 5.8 mph - N/A   Mostly Cloudy
8:14 PM 78.8 °F - 64.4 °F 61% 29.97 in 10.0 mi ENE 5.8 mph - N/A   Scattered Clouds
8:35 PM 77.0 °F - 66.2 °F 69% 29.97 in 10.0 mi ENE 5.8 mph - N/A   Scattered Clouds
8:54 PM 77.0 °F - 64.4 °F 65% 29.97 in 10.0 mi ENE 4.6 mph - N/A   Mostly Cloudy
9:15 PM 77.0 °F - 64.4 °F 65% 29.98 in 10.0 mi East 5.8 mph - N/A   Mostly Cloudy
9:34 PM 77.0 °F - 64.4 °F 65% 29.98 in 10.0 mi East 6.9 mph - N/A   Mostly Cloudy
9:54 PM 75.2 °F - 64.4 °F 69% 29.98 in 10.0 mi East 5.8 mph - N/A   Clear
10:15 PM 75.2 °F - 62.6 °F 65% 29.99 in 10.0 mi East 6.9 mph - N/A   Clear
10:34 PM 75.2 °F - 62.6 °F 65% 29.98 in 10.0 mi East 8.1 mph - N/A   Clear
10:55 PM 73.4 °F - 62.6 °F 69% 29.99 in 10.0 mi East 5.8 mph - N/A   Clear
11:14 PM 73.4 °F - 62.6 °F 69% 29.99 in 10.0 mi East 4.6 mph - N/A   Clear
11:35 PM 73.4 °F - 62.6 °F 69% 29.99 in 10.0 mi East 5.8 mph - N/A   Clear
11:54 PM 71.6 °F - 62.6 °F 73% 29.99 in 10.0 mi East 4.6 mph - N/A   Clear